Regional Weather Roundup
Issued by NWS Upton, NY

Current Version | Previous Version | Text Only | Print | Product List | Glossary Off
Versions: 1 2 3 4 5 6 7 8 9 10 11 12 13 14 15 16 17 18 19 20 21 22 23 24 25 26 27 28 29 30 31 32 33 34 35 36 37 38 39 40 41 42 43 44 45 46 47 48 49
000 ASUS41 KOKX 011804 RWROKX REGIONAL WEATHER ROUNDUP NATIONAL WEATHER SERVICE NEW YORK NY 200 PM EDT TUE SEP 01 2015 NOTE: "FAIR" INDICATES FEW OR NO CLOUDS BELOW 12,000 FEET WITH NO SIGNIFICANT WEATHER AND/OR OBSTRUCTIONS TO VISIBILITY. NYZ071-072-176-178-NJZ106-104-011900- NEW YORK CITY METRO AREA CITY SKY/WX TMP DP RH WIND PRES REMARKS CENTRAL PARK MOSUNNY 88 62 41 VRB3 30.07S LAGUARDIA APRT MOSUNNY 86 60 41 NE8 30.04S KENNEDY INTL MOSUNNY 85 66 53 S13 30.05F NEWARK/LIBERTY MOSUNNY 87 62 43 CALM 30.03F BRNX BOT. GARD N/A 84 64 51 N2 30.04F TETERBORO SUNNY 87 58 37 S3 30.02F $$ NYZ177-179-078>081-011900- LONG ISLAND NEW YORK CITY SKY/WX TMP DP RH WIND PRES REMARKS FARMINGDALE SUNNY 85 63 47 S9 30.05F ISLIP MOSUNNY 83 63 50 SE14 30.03S SHIRLEY SUNNY 84 63 49 SE10 30.05F WESTHAMPTON SUNNY 83 60 45 SE13 30.06S MONTAUK POINT N/A 81 64 56 VRB7 30.06F $$ NYZ052-065-067-011900- HUDSON VALLEY CITY SKY/WX TMP DP RH WIND PRES REMARKS WHITE PLAINS MOSUNNY 84 62 47 SE7 30.05F NEWBURGH MOSUNNY 82 64 54 VRB6 30.07F MONTGOMERY SUNNY 86 61 42 E7 30.06S POUGHKEEPSIE MOSUNNY 85 61 44 CALM 30.04F ALBANY MOSUNNY 83 64 52 CALM 30.05S $$ NJZ001-105-106-008-010-013-015-019>022-104-011900- NEW JERSEY CITY SKY/WX TMP DP RH WIND PRES REMARKS NEWARK/LIBERTY MOSUNNY 87 62 43 CALM 30.03F TETERBORO SUNNY 87 58 37 S3 30.02F CALDWELL CLOUDY 85 61 44 E6 30.04F MORRISTOWN PTSUNNY 88 63 42 CALM 30.04F SOMERVILLE MOSUNNY 89 64 43 CALM 30.01F HX 90 SUSSEX MOSUNNY 84 62 47 CALM 30.06F ANDOVER N/A 84 62 47 CALM 30.07F TRENTON MOSUNNY 88 63 43 CALM 30.03F MILLVILLE MOSUNNY 88 66 48 CALM 30.03F HX 90 ATLANTIC CITY N/A 87 68 52 SE9 30.03F HX 90 WRIGHTSTOWN MOSUNNY 88 67 50 CALM 30.01F HX 91 TOMS RIVER MOSUNNY 84 66 54 SE8 30.05S BELMAR SUNNY 82 63 51 E12 30.05F $$ PAZ047>061-062-071-011900- EASTERN PENNSYLVANIA CITY SKY/WX TMP DP RH WIND PRES REMARKS PHILADELPHIA MOSUNNY 91 63 39 S7 30.03F HX 92 ALLENTOWN MOSUNNY 88 65 46 VRB5 30.06F HX 90 SCRANTON MOSUNNY 85 63 47 N6 30.08F $$ CTZ002-004>006-009-010-012-RIZ004-006-007-MAZ004-011-015-011900- SOUTHERN NEW ENGLAND IN CT CITY SKY/WX TMP DP RH WIND PRES REMARKS BRADLEY INTL MOSUNNY 85 57 38 NW5 30.04F HARTFORD SUNNY 84 59 42 N8 30.03F DANBURY SUNNY 83 59 44 N7 30.07S WTRBRY/OXFORD MOSUNNY 82 61 47 N6 30.09S BRIDGEPORT SUNNY 83 64 52 S13 30.04S MERIDEN MOSUNNY 88 58 36 VRB5 30.03F NEW HAVEN MOSUNNY 81 68 64 S12 30.04F CHESTER NOT AVBL GROTON SUNNY 79 66 64 SE13 30.04S WILLIMANTIC SUNNY 86 55 34 VRB6 30.04F IN RI CITY SKY/WX TMP DP RH WIND PRES REMARKS PROVIDENCE MOSUNNY 83 60 45 S7 30.04F BLOCK ISLAND SUNNY 79 66 65 SE10 30.06F WESTERLY SUNNY 79 62 56 SE13 30.06S IN MA CITY SKY/WX TMP DP RH WIND PRES REMARKS BOSTON MOSUNNY 75 63 66 E13 30.06R WORCESTER MOSUNNY 79 56 45 SW8 30.08S WESTFIELD MOSUNNY 85 57 38 NW7 30.05S PROVINCETOWN N/A 75 61 60 NE5 30.06S NANTUCKET SUNNY 80 58 46 E8 30.05R $$ ANZ330-335-338-340-345-350-353-355-011900- COASTAL MARINE OBSERVATIONS STATION/POSITION TIME SKY/WX TEMP WIND PRES VSBY WAVE AIR SEA DIR/SP/G HT/PER (UTC) (F) (DEG/KT/KT) (MB) (MI) (FT/S) NY HARB ENTRANCE 1650 77 78 120/ 6/ 8 1017.6 2/ 9 4S FIRE IS NOT AVBL 20S FIRE ISLAND 1650 75 75 60/ 8/ 8 1017.7 2/ 8 GREAT SOUTH BAY 1700 76 79 170/ 10/ 10 N/A 23SW MTP 1750 72 72 90/ 4/ 6 1017.3 2/ 6 HUDSON CANYON NOT AVBL KINGS POINT 1700 82 74 180/ 3/ 5 1016.9 EXECUTION ROCKS 1700 80 90/ 4/ 4 N/A CENTRAL LI SOUND NOT AVBL EASTERN LI SOUND 1700 73 71 140/ 10/ 12 N/A ROBBINS REEF 1700 82 CALM 1016.4 $$ >>>>>>>>>>>>>>>>>>>>>>>>>>>> KEY <<<<<<<<<<<<<<<<<<<<<<<<<<< > < > SKY/WX - SKY CONDITION/PRESENT WEATHER < > TMP - TEMPERATURE IN FAHRENHEIT < > DP - DEWPOINT IN FAHRENHEIT < > RH - RELATIVE HUMIDITY IN PERCENT < > WIND - DIRECTION AND SPEED IN MPH < > PRES - MEAN SEA LEVEL PRESSURE IN INCHES OF HG < > WCI - WIND CHILL INDEX < > VSB - VISIBILITY IN MILES < > HX - HEAT INDEX < > TC - TEMPERATURE IN CELSIUS < > VRB - VARIABLE WIND DIRECTION < > < >>>>>>>>>>>>>>>>>>>>>>>>>>>> KEY <<<<<<<<<<<<<<<<<<<<<<<<<<<

USA.gov is the U.S. government's official web portal to all federal, state and local government web resources and services.